Home   Weather   Bordeaux   Past weeks
Flag for France

Past Weather in Bordeaux, Aquitaine, France — Yesterday and Last 2 Weeks

Now
59 °F

Sunny.


Feels Like: 56 °F
Forecast: 63 / 39 °F
Wind: 15 mph from Northeast

Location: Bordeaux / Merignac

Current Time: Mar 26, 2019 at 3:48:29 pm

Latest Report: Mar 26, 2019 at 3:00 pm


Visibility: 10 mi

Pressure: 30.39 "Hg

Humidity: 34%

Dew Point: 30 °F

Location of BordeauxLocation

Past Weather in Bordeaux — Graph

°F

Bordeaux Temperature Yesterday

Maximum temperature yesterday: 59 °F (at 2:00 pm)
Minimum temperature yesterday: 45 °F (at 3:00 am)
Average temperature yesterday: 52 °F

High & Low Weather Summary for the Past Weeks

 TemperatureHumidityPressure
High73 °F (Mar 23, 3:00 pm)100% (Mar 14, 11:30 pm)30.54 "Hg (Mar 14, 11:30 pm)
Low36 °F (Mar 20, 6:30 am)23% (Mar 22, 5:00 pm)29.95 "Hg (Mar 16, 6:00 pm)
Average51 °F69%30.31 "Hg
* Reported Mar 11 2:00 pm — Mar 26 2:30 pm, Bordeaux. Weather by CustomWeather, © 2019

Note: Actual official high and low records may vary slightly from our data, if they occured in-between our weather recording intervals... More about our weather records

Advertising

Bordeaux Weather History for the Previous 24 Hours

Scroll right to see more
 ConditionsComfort  
Time TempWeatherWind HumidityBarometerVisibility
2:30 pm
Tue, Mar 26
59 °FPassing clouds.14 mph36%30.39 "HgN/A
2:00 pm57 °FSunny.13 mph39%30.39 "Hg10 mi
1:30 pm55 °FSunny.13 mph41%30.42 "Hg10 mi
1:00 pm55 °FPassing clouds.10 mph41%30.42 "HgN/A
12:30 pm54 °FPassing clouds.9 mph44%30.42 "HgN/A
12:00 pm54 °FPassing clouds.13 mph44%30.42 "HgN/A
11:30 am52 °FSunny.13 mph50%30.42 "Hg10 mi
11:00 am50 °FSunny.12 mph50%30.45 "Hg10 mi
10:30 am50 °FPassing clouds.10 mph54%30.45 "HgN/A
10:00 am48 °FSunny.13 mph58%30.45 "Hg10 mi
9:30 am46 °FPassing clouds.13 mph62%30.45 "HgN/A
9:00 am45 °FPassing clouds.14 mph66%30.45 "HgN/A
8:30 am43 °FSunny.12 mph66%30.45 "Hg10 mi
8:00 am43 °FSunny.9 mph66%30.45 "Hg10 mi
7:30 am41 °FSunny.8 mph70%30.45 "Hg10 mi
7:00 am41 °FSunny.10 mph70%30.42 "Hg10 mi
6:30 am41 °FClear.10 mph66%30.42 "Hg10 mi
6:00 am41 °FClear.8 mph66%30.42 "Hg10 mi
5:30 am41 °FClear.7 mph66%30.42 "Hg10 mi
5:00 am43 °FClear.7 mph61%30.42 "Hg10 mi
4:30 am43 °FClear.8 mph61%30.39 "Hg10 mi
4:00 am43 °FClear.12 mph66%30.42 "Hg10 mi
3:30 am43 °FClear.9 mph66%30.42 "Hg10 mi
3:00 am43 °FClear.6 mph66%30.42 "Hg10 mi
2:30 am45 °FClear.5 mph61%30.42 "Hg10 mi
2:00 am45 °FClear.8 mph61%30.42 "Hg10 mi
1:30 am45 °FClear.9 mph61%30.42 "Hg10 mi
1:00 am46 °FClear.9 mph62%30.39 "Hg10 mi
12:30 am46 °FClear.10 mph62%30.39 "Hg10 mi
12:00 am46 °FClear.6 mph62%30.39 "Hg10 mi
11:30 pm
Mon, Mar 25
46 °FClear.6 mph62%30.39 "Hg10 mi
11:00 pm48 °FClear.6 mph58%30.39 "Hg10 mi
10:30 pm48 °FClear.9 mph58%30.39 "Hg10 mi
10:00 pm50 °FClear.12 mph54%30.39 "Hg10 mi
9:30 pm52 °FClear.13 mph50%30.36 "Hg10 mi
9:00 pm52 °FClear.14 mph50%30.36 "Hg10 mi
8:30 pm54 °FClear.15 mph47%30.36 "Hg10 mi
8:00 pm54 °FClear.14 mph51%30.33 "Hg10 mi
7:30 pm54 °FClear.13 mph47%30.33 "Hg10 mi
7:00 pm55 °FSunny.16 mph44%30.33 "Hg10 mi
6:30 pm55 °FSunny.14 mph44%30.30 "Hg10 mi
6:00 pm57 °FSunny.16 mph44%30.30 "Hg10 mi
5:30 pm57 °FPassing clouds.16 mph44%30.30 "HgN/A
5:00 pm57 °FSunny.15 mph48%30.30 "Hg10 mi
4:30 pm59 °FSunny.15 mph42%30.30 "Hg10 mi
4:00 pm59 °FSunny.16 mph45%30.33 "Hg10 mi
3:30 pm59 °FPassing clouds.12 mph45%30.33 "HgN/A
3:00 pm59 °FPassing clouds.15 mph45%30.33 "HgN/A
Weather by CustomWeather, © 2019

See weather overview